Temp
8 8 7 8 7 8 7 7 8 8 10 9 10 10 11 12 11 11 11 12 13 14 15 16 17 18 18 19 19 19 19 19 18 17 15 14 13 13 12 12 12 11 11 10
6 6 9 8 8 8 8 8 9 9 10 9 9 9 10 11 11 11 12 11 12 13 14 16 17 17 18 18 19 18 18 18 17 16 15 14 13 12 12 12 11 11 11 11
6 7 7 7 7 8 8 8 8 8 8 8 8 9 12 12 12 12 11 11 12 12 14 15 16 17 17 18 18 17 17 17 16 16 14 14 13 12 12 11 10 10 11 11
7 8 7 6 6 6 6 7 7 7 7 7 8 8 11 12 12 13 11 12 12 12 13 15 16 16 17 18 17 16 16 16 15 13 13 13 13 12 11 11 11 11 10 10
6 6 5 6 7 6 7 7 7 7 7 6 8 6 8 9 10 11 12 12 13 13 14 15 16 17 17 18 17 16 15 15 13 13 13 13 12 12 12 11 10 10 10 10
6 6 6 6 6 7 7 6 7 7 7 7 8 7 10 11 11 11 11 12 13 13 15 15 15 16 17 16 16 15 15 14 13 13 13 13 12 12 11 10 10 10 10 10
7 7 6 6 6 6 7 5 6 6 7 7 8 7 10 11 12 12 12 12 14 14 14 14 14 15 16 16 15 15 14 13 12 12 13 12 12 11 10 10 10 10 10 9
5 5 6 7 7 6 5 7 7 7 7 8 7 8 9 10 11 11 11 11 12 13 14 15 15 15 17 16 15 15 14 13 12 12 12 11 11 11 11 11 10 10 9 9
5 5 5 5 6 7 5 5 7 6 7 6 8 8 9 10 11 11 11 12 11 12 14 14 15 15 16 16 16 15 14 12 12 12 11 11 10 10 10 10 9 9 9 8
5 5 5 5 6 6 6 7 5 5 6 7 7 7 9 10 10 10 10 11 11 11 12 14 14 13 15 15 15 13 12 12 11 11 10 10 10 10 10 9 9 9 8 8
5 5 4 5 5 7 6 5 6 6 6 7 7 9 8 10 10 9 10 10 10 10 10 12 14 13 12 13 13 12 11 11 11 10 10 10 9 9 9 9 8 8 7 7
6 5 5 5 7 7 7 7 7 6 6 6 5 8 10 9 8 9 9 10 10 10 9 10 12 13 11 11 11 11 11 11 10 10 9 9 9 9 9 8 8 7 6 6
5 5 4 5 6 6 5 6 7 7 7 6 6 8 11 9 9 10 10 10 9 8 8 8 8 9 10 10 11 11 11 10 10 9 9 9 9 8 8 8 7 6 5 5
7 5 5 7 8 6 5 6 6 5 6 7 7 8 9 10 11 9 10 9 9 7 7 6 7 8 9 10 10 10 10 10 10 9 9 9 8 8 7 7 6 5 5 4
6 5 5 6 7 6 5 6 5 5 6 6 8 8 10 10 10 9 8 8 9 7 6 5 6 7 8 9 10 10 9 9 9 9 8 8 8 7 6 6 5 4 4 3
6 6 5 5 6 5 5 6 5 5 6 6 7 7 10 10 8 8 7 8 8 6 6 5 6 7 8 9 9 9 9 9 8 8 8 7 7 6 5 4 4 3 3 2
5 5 6 7 7 6 7 7 6 6 7 7 6 8 9 8 8 6 6 7 7 6 6 6 6 8 9 9 9 9 8 8 8 8 7 6 6 5 4 4 3 2 2 1
6 4 5 6 6 9 8 9 8 7 8 8 8 9 9 8 7 7 8 6 7 7 7 7 7 8 9 9 8 8 8 8 7 6 6 5 4 4 3 3 2 1 1 0
7 5 6 7 7 9 8 9 8 7 8 8 8 9 10 8 8 9 7 7 7 7 8 8 8 8 8 8 8 8 7 7 6 5 5 4 3 3 2 2 1 1 -0 -0
6 6 6 6 7 9 10 8 8 9 10 8 9 9 9 9 8 8 7 6 8 8 8 9 8 8 8 7 7 7 7 5 5 4 3 3 2 2 1 1 0 -0 -0 -1
6 6 6 7 7 8 9 8 8 9 10 6 8 9 7 8 7 7 5 6 7 7 7 8 8 8 7 7 7 6 5 4 4 3 2 2 1 1 1 0 -0 -1 -1 -2
6 6 6 8 8 7 8 8 9 9 8 7 8 8 7 6 4 4 4 5 6 6 6 7 7 7 6 6 5 5 4 3 3 2 2 1 1 0 -0 -0 -1 -2 -2 -3
6 7 7 6 7 8 9 9 10 9 7 7 8 9 9 6 3 2 2 3 5 5 5 6 6 6 4 4 5 5 3 3 2 1 1 1 0 -0 -1 -2 -2 -3 -3 -3
6 5 7 8 9 7 9 9 9 8 7 7 8 7 8 7 4 4 4 4 4 4 4 5 5 4 4 3 4 4 3 1 1 1 0 -0 -1 -1 -2 -2 -3 -3 -3 -4
6 6 7 6 7 7 9 9 9 7 6 7 7 8 7 8 5 6 5 5 4 4 4 5 5 4 3 2 2 2 1 1 0 -0 -1 -1 -2 -2 -2 -3 -3 -4 -4 -5
4 7 8 8 9 9 9 8 8 8 6 7 8 6 6 8 7 6 4 4 4 4 4 4 4 4 2 1 1 1 0 -1 -1 -1 -2 -2 -2 -3 -3 -3 -4 -5 -5 -5
Height
1486 1488 1487 1488 1490 1490 1492 1494 1493 1490 1485 1485 1476 1463 1462 1461 1460 1457 1455 1455 1454 1454 1458 1460 1461 1463 1466 1468 1469 1470 1471 1473 1475 1478 1484 1491 1496 1500 1503 1506 1508 1511 1513 1515
1488 1484 1482 1485 1487 1489 1489 1490 1486 1483 1484 1484 1476 1451 1455 1453 1448 1446 1446 1446 1446 1448 1450 1452 1454 1456 1459 1461 1462 1463 1466 1469 1471 1474 1478 1486 1492 1496 1500 1503 1505 1508 1510 1513
1480 1480 1479 1483 1486 1487 1486 1486 1486 1487 1486 1482 1477 1442 1434 1430 1431 1434 1434 1433 1435 1436 1439 1443 1446 1448 1451 1454 1456 1458 1460 1464 1467 1470 1475 1482 1488 1492 1495 1499 1502 1505 1508 1510
1476 1475 1479 1483 1485 1487 1486 1484 1484 1486 1489 1482 1477 1454 1431 1429 1428 1427 1427 1424 1424 1425 1428 1432 1435 1440 1443 1447 1450 1454 1457 1459 1463 1469 1473 1477 1482 1486 1491 1496 1500 1503 1506 1508
1472 1474 1476 1478 1477 1483 1481 1480 1482 1483 1484 1483 1473 1480 1429 1433 1429 1424 1418 1413 1414 1415 1418 1421 1424 1432 1436 1439 1444 1449 1454 1456 1460 1466 1471 1475 1479 1484 1489 1493 1497 1501 1503 1505
1470 1469 1470 1470 1471 1474 1476 1481 1481 1481 1481 1470 1462 1469 1416 1425 1422 1419 1412 1408 1410 1410 1410 1412 1416 1423 1427 1432 1438 1444 1449 1453 1459 1463 1468 1472 1476 1481 1485 1490 1494 1497 1500 1503
1463 1462 1465 1468 1472 1472 1472 1481 1477 1476 1470 1458 1453 1462 1421 1420 1416 1412 1407 1402 1403 1404 1405 1407 1409 1414 1418 1424 1430 1437 1443 1448 1455 1460 1465 1470 1475 1479 1483 1487 1491 1494 1496 1499
1468 1466 1461 1463 1463 1464 1467 1466 1465 1461 1458 1449 1453 1440 1421 1414 1408 1404 1405 1402 1399 1399 1399 1400 1402 1407 1411 1416 1423 1430 1437 1443 1450 1456 1462 1468 1473 1477 1481 1486 1490 1492 1494 1496
1463 1461 1458 1459 1460 1464 1466 1462 1454 1460 1454 1456 1440 1426 1414 1408 1405 1405 1402 1397 1392 1389 1391 1395 1396 1401 1405 1410 1416 1423 1431 1439 1447 1452 1458 1465 1471 1475 1480 1485 1488 1489 1491 1493
1459 1462 1455 1455 1457 1457 1459 1458 1460 1459 1454 1442 1431 1428 1414 1404 1402 1401 1397 1393 1388 1384 1384 1387 1391 1396 1402 1407 1413 1421 1429 1437 1444 1451 1457 1462 1467 1473 1479 1483 1485 1487 1489 1491
1456 1461 1458 1455 1449 1445 1454 1455 1453 1451 1445 1434 1430 1411 1400 1396 1397 1399 1395 1390 1387 1382 1380 1382 1386 1391 1397 1403 1409 1417 1427 1435 1443 1449 1455 1460 1464 1470 1476 1481 1483 1486 1487 1488
1448 1453 1451 1446 1436 1435 1437 1437 1437 1439 1434 1436 1439 1402 1393 1396 1397 1394 1390 1386 1386 1383 1379 1380 1382 1386 1392 1401 1409 1417 1424 1432 1441 1448 1454 1459 1464 1468 1473 1478 1481 1483 1485 1486
1445 1448 1451 1439 1436 1433 1433 1425 1424 1424 1426 1422 1428 1398 1389 1392 1390 1389 1388 1384 1385 1384 1381 1380 1381 1384 1391 1400 1408 1415 1423 1431 1439 1447 1454 1459 1463 1467 1470 1475 1479 1481 1482 1483
1440 1440 1436 1421 1412 1419 1420 1416 1418 1423 1416 1407 1403 1396 1394 1387 1386 1386 1387 1386 1383 1383 1382 1382 1382 1385 1391 1399 1407 1414 1422 1430 1438 1446 1453 1458 1463 1466 1469 1472 1475 1477 1479 1480
1439 1431 1429 1419 1412 1414 1416 1408 1409 1410 1406 1409 1388 1389 1380 1386 1387 1387 1387 1383 1382 1381 1382 1383 1384 1387 1392 1399 1407 1416 1423 1431 1438 1446 1453 1458 1462 1465 1467 1470 1473 1474 1476 1477
1431 1423 1423 1412 1408 1406 1401 1396 1398 1398 1398 1395 1398 1386 1381 1382 1383 1384 1385 1385 1380 1378 1380 1382 1384 1388 1394 1401 1409 1417 1423 1431 1438 1446 1452 1457 1461 1463 1465 1468 1470 1471 1473 1474
1426 1424 1419 1398 1397 1395 1387 1381 1379 1382 1387 1391 1392 1368 1378 1379 1381 1380 1384 1381 1376 1375 1379 1382 1386 1392 1398 1404 1411 1418 1426 1433 1440 1447 1451 1456 1459 1461 1464 1466 1467 1469 1471 1472
1418 1423 1420 1403 1398 1379 1372 1370 1369 1371 1374 1377 1376 1375 1375 1379 1381 1378 1378 1377 1375 1377 1379 1383 1389 1395 1401 1408 1415 1422 1428 1434 1441 1446 1451 1455 1458 1460 1462 1464 1466 1467 1469 1469
1410 1415 1412 1404 1394 1380 1372 1367 1368 1370 1367 1368 1369 1370 1372 1376 1378 1373 1373 1373 1375 1377 1380 1385 1391 1398 1404 1411 1417 1424 1429 1436 1442 1446 1451 1454 1457 1459 1460 1462 1464 1466 1466 1466
1406 1410 1412 1409 1400 1381 1375 1370 1367 1366 1361 1360 1360 1364 1371 1375 1380 1374 1372 1372 1374 1378 1382 1387 1394 1401 1408 1414 1419 1424 1430 1437 1442 1446 1450 1453 1456 1457 1459 1461 1463 1463 1464 1464
1408 1409 1408 1407 1402 1387 1375 1372 1370 1368 1369 1359 1355 1363 1370 1374 1376 1374 1375 1376 1377 1381 1385 1390 1397 1404 1410 1415 1421 1427 1433 1438 1443 1446 1450 1452 1455 1457 1459 1460 1461 1461 1461 1460
1400 1404 1404 1399 1399 1399 1374 1375 1375 1370 1363 1363 1359 1363 1368 1373 1377 1379 1380 1381 1381 1383 1388 1393 1398 1406 1413 1418 1424 1429 1434 1439 1443 1447 1450 1452 1455 1456 1457 1459 1459 1459 1458 1456
1400 1392 1392 1394 1388 1373 1373 1371 1369 1366 1364 1363 1362 1363 1366 1372 1377 1381 1382 1385 1385 1388 1392 1398 1403 1408 1416 1422 1428 1430 1435 1440 1444 1447 1450 1453 1454 1456 1457 1457 1457 1457 1455 1453
1387 1386 1388 1384 1373 1371 1368 1368 1368 1366 1363 1362 1362 1365 1369 1370 1377 1379 1384 1386 1389 1394 1397 1402 1408 1412 1418 1425 1430 1434 1437 1442 1446 1448 1451 1453 1454 1455 1456 1456 1455 1453 1451 1448
1384 1384 1381 1381 1370 1367 1365 1367 1367 1365 1363 1362 1364 1367 1370 1373 1378 1382 1386 1390 1396 1401 1403 1409 1412 1416 1421 1427 1432 1437 1441 1444 1447 1450 1452 1453 1454 1454 1455 1454 1452 1450 1447 1444
1377 1375 1377 1374 1366 1367 1366 1366 1367 1367 1366 1367 1368 1371 1376 1379 1381 1387 1392 1398 1402 1405 1408 1412 1416 1420 1425 1431 1436 1440 1443 1447 1449 1450 1451 1452 1453 1453 1453 1451 1449 1447 1445 1442
Wind_Speed
4 5 9 11 6 5 1 3 7 5 8 10 16 22 20 24 23 23 23 26 29 34 30 27 25 24 23 22 23 25 24 24 24 29 31 28 25 23 21 21 19 16 12 9
3 10 11 1 8 10 11 13 15 10 6 8 13 28 18 18 23 29 29 27 29 35 33 31 30 27 22 22 23 25 24 23 26 30 33 28 26 24 23 24 22 17 13 14
5 2 2 10 6 9 11 12 13 13 8 13 15 24 16 15 28 31 34 36 36 36 40 36 33 30 26 23 24 26 24 24 28 32 33 28 25 25 26 24 21 19 17 14
9 10 6 4 6 8 15 5 11 13 7 7 2 10 9 8 14 13 17 26 33 36 39 41 37 32 27 25 25 25 23 26 28 31 32 28 28 28 27 24 22 21 19 14
4 6 5 12 11 7 6 5 6 8 8 8 13 7 6 2 6 10 11 25 32 32 33 36 38 32 27 26 28 26 24 25 27 31 29 28 29 26 25 26 25 24 19 14
6 3 6 8 7 13 3 2 8 2 5 8 11 11 18 5 5 5 7 20 26 28 31 29 33 33 30 29 29 26 26 27 28 31 26 27 24 28 29 29 28 24 18 13
5 15 5 4 3 1 9 3 2 4 6 7 7 11 20 10 21 20 16 23 28 20 23 28 31 35 32 32 31 30 29 30 31 31 29 26 23 27 29 30 28 23 18 13
4 5 11 8 14 7 11 11 6 5 5 4 4 8 7 11 18 23 17 25 25 28 25 22 25 34 33 33 33 32 30 31 34 35 31 26 25 26 28 28 25 20 15 11
4 4 1 7 5 7 4 10 10 5 11 6 5 10 10 13 11 5 10 18 24 27 25 23 22 31 34 35 35 34 33 34 35 34 30 29 27 27 29 28 23 18 14 11
2 5 5 2 6 6 6 1 3 5 5 8 6 7 11 9 5 4 8 17 26 24 22 22 23 29 34 37 36 34 32 35 36 32 31 30 29 29 29 25 21 16 13 11
5 5 2 4 9 11 8 6 5 3 4 3 3 6 5 11 4 4 9 17 27 29 20 23 24 27 34 39 38 36 35 36 35 33 32 31 32 30 26 22 18 15 12 10
8 3 5 9 7 15 14 15 18 9 8 4 2 15 6 5 4 7 9 20 25 24 15 20 27 28 34 38 36 37 37 36 34 32 31 31 31 29 25 21 17 14 12 10
9 4 3 5 1 4 8 14 20 16 8 16 8 10 2 3 3 13 18 22 20 17 9 15 23 27 32 37 38 39 37 35 33 32 32 31 29 26 22 19 16 13 11 9
13 5 8 10 12 2 6 16 18 16 6 14 19 20 18 19 18 13 21 22 19 12 9 15 22 28 35 39 39 38 37 34 33 32 30 28 26 22 19 17 15 12 10 9
8 7 12 19 23 18 18 12 19 19 22 12 13 18 19 14 12 11 16 25 24 14 13 18 23 29 36 39 38 36 35 33 31 31 28 25 23 20 18 15 13 10 8 9
6 5 4 17 19 21 22 23 21 21 21 21 19 26 16 3 7 13 19 29 24 18 16 18 23 32 37 38 37 35 34 33 30 28 25 23 21 18 16 14 10 8 8 9
4 3 3 11 6 10 8 13 20 20 21 15 17 22 2 3 7 11 24 23 16 17 19 21 27 34 35 35 34 34 33 30 27 25 24 22 19 17 14 10 8 7 7 9
5 3 3 6 7 3 3 5 12 19 17 21 17 8 6 8 21 25 20 11 7 17 19 23 30 34 33 33 32 32 30 28 27 24 22 20 17 14 11 8 6 6 8 10
14 3 3 3 6 7 5 7 1 8 9 19 21 17 13 5 3 13 8 5 7 14 17 24 29 32 32 31 30 29 28 26 24 22 19 16 13 11 8 6 4 6 8 10
5 4 1 3 4 4 3 5 3 1 3 3 20 13 6 6 3 3 6 2 7 10 16 23 27 30 30 31 30 28 27 25 22 19 16 14 11 8 5 4 5 7 9 11
3 2 3 4 4 7 3 5 2 4 6 8 11 13 10 4 2 1 5 10 13 15 19 23 27 30 31 30 28 26 25 22 19 17 14 11 8 5 3 4 5 8 10 13
6 5 4 3 3 6 1 2 1 3 10 6 3 11 13 13 12 13 14 17 19 22 23 26 30 31 30 28 27 26 23 20 17 14 12 9 6 3 3 4 6 9 12 15
3 5 3 7 5 4 5 9 12 13 10 5 6 13 15 18 19 19 20 20 22 23 25 27 31 33 29 26 22 22 19 17 15 12 9 6 4 2 3 5 8 11 14 16
4 4 3 2 3 5 8 7 8 7 5 2 5 16 18 21 21 23 22 23 24 25 28 31 32 31 29 22 18 14 16 15 12 9 7 5 3 2 4 7 10 13 14 15
4 3 3 5 7 10 12 8 5 3 7 12 15 16 20 24 25 26 26 26 27 30 31 30 28 27 26 21 17 16 15 12 9 7 5 4 2 3 6 9 11 13 14 17
6 6 4 4 3 2 4 3 4 7 12 14 19 24 23 25 30 29 29 29 30 30 28 25 23 22 22 20 18 16 13 9 6 6 4 2 2 5 7 9 10 12 14 16
Wind_Direction
186 201 211 204 201 208 163 248 248 264 288 310 281 281 279 280 267 267 266 270 275 276 271 261 254 256 258 250 251 250 236 226 215 204 199 205 203 203 199 198 199 199 195 217
151 236 235 314 207 230 248 262 269 293 286 285 293 283 276 265 258 254 259 256 259 265 264 259 254 254 255 253 255 236 228 221 209 207 200 202 203 200 198 193 188 191 194 195
194 141 156 199 208 226 237 245 269 270 296 279 283 280 269 252 252 252 253 254 251 248 255 255 251 249 249 245 246 227 220 217 207 207 194 195 194 191 188 184 184 181 189 190
249 240 221 172 208 199 256 218 243 256 264 268 112 291 269 270 272 273 254 251 247 247 250 251 250 246 240 244 232 224 218 212 210 203 195 200 198 197 195 194 186 189 185 192
216 186 185 219 231 169 231 197 223 229 240 286 249 263 291 336 284 267 247 250 249 250 251 250 243 236 233 230 227 218 215 212 206 203 204 206 202 201 194 188 192 187 187 193
219 189 170 192 197 192 116 293 251 238 236 247 225 201 278 242 274 293 273 271 268 259 247 254 242 230 226 221 216 212 211 208 200 202 208 204 206 192 190 189 188 186 189 197
224 231 185 160 163 205 164 172 241 228 213 244 185 193 250 296 292 275 271 278 281 271 269 259 243 226 218 212 209 206 207 204 197 202 207 198 199 194 194 190 189 190 193 201
199 310 185 183 214 201 182 183 202 226 219 240 186 231 251 230 253 263 304 293 289 280 271 258 243 225 211 207 204 202 201 197 192 199 195 194 195 196 194 190 190 192 196 209
189 265 353 192 185 202 188 213 233 265 264 268 231 262 275 256 272 296 307 334 308 286 267 254 235 219 209 202 201 200 195 188 193 192 191 192 194 193 189 188 192 197 204 219
159 275 216 172 172 236 206 200 173 191 241 247 241 247 246 277 218 314 331 343 339 321 269 244 236 216 208 202 197 193 190 185 189 190 189 188 187 188 189 193 197 203 212 226
137 209 256 147 202 201 200 228 211 278 222 242 260 246 228 249 174 305 343 341 343 334 291 234 218 211 208 199 193 186 183 185 188 188 187 186 183 184 191 197 201 208 218 234
198 216 237 233 209 204 213 230 219 233 222 228 225 263 322 236 256 297 324 351 342 334 302 230 210 207 202 195 186 181 180 184 186 186 185 183 183 186 191 196 203 211 224 240
163 214 297 291 29 216 221 218 225 227 246 237 240 253 350 181 34 342 340 339 332 319 284 216 202 196 192 185 181 179 180 182 183 183 182 182 184 186 189 196 205 214 228 248
174 211 211 243 251 175 231 224 218 220 226 245 235 262 265 275 295 328 315 312 317 287 245 206 192 188 183 179 178 178 177 180 179 180 181 183 184 186 190 197 206 218 236 261
181 252 239 252 263 266 254 238 214 217 230 227 255 249 259 261 268 283 306 306 304 253 221 200 187 181 176 174 175 176 175 175 177 178 180 181 184 187 192 199 209 225 247 271
195 261 255 270 263 255 257 250 229 223 225 237 259 270 270 214 308 315 313 286 281 232 212 198 184 175 170 171 171 172 172 172 174 177 179 183 187 189 195 202 214 236 261 287
213 235 259 275 307 276 251 253 232 229 221 220 228 242 19 305 272 289 272 280 266 212 199 188 181 173 169 170 172 170 169 169 171 179 181 183 188 192 196 205 223 249 279 299
198 191 236 292 305 268 313 303 238 220 225 224 242 233 196 222 250 258 267 281 240 202 190 181 176 171 169 167 166 166 167 170 174 176 181 184 188 192 197 210 231 269 293 304
218 156 280 287 304 276 326 331 32 178 237 225 230 242 235 165 234 287 284 287 216 193 181 177 176 172 168 167 167 167 165 170 175 178 180 182 186 192 198 214 259 284 301 311
179 152 178 340 309 319 288 330 23 286 301 271 217 224 193 128 289 284 336 108 153 172 177 175 175 172 170 167 167 168 168 172 173 175 176 178 183 188 200 241 276 301 308 314
151 195 219 241 273 284 281 307 315 5 305 339 218 205 140 161 182 274 134 139 151 157 161 167 168 170 169 167 168 168 166 168 169 170 173 174 174 184 220 275 300 306 313 318
182 160 204 186 234 293 354 59 163 261 316 330 221 180 158 136 142 152 149 144 148 149 155 162 162 163 164 164 166 163 163 163 165 168 167 164 170 206 267 292 302 313 323 327
237 194 187 179 219 231 217 248 284 303 295 309 190 182 184 149 143 142 133 135 134 140 146 153 156 152 153 157 167 160 158 161 163 159 157 169 194 229 269 301 320 327 327 328
244 177 227 359 253 246 275 279 289 311 290 231 180 162 159 141 136 127 128 126 129 137 141 146 146 144 143 149 153 158 153 151 153 158 168 179 195 242 302 325 329 327 331 334
210 139 208 256 281 282 281 244 292 43 95 125 135 147 147 137 131 130 128 130 134 138 137 142 144 142 140 144 145 144 144 149 158 165 171 180 209 309 326 325 328 334 338 339
188 194 179 226 248 169 292 183 155 124 123 127 136 134 137 137 132 133 130 134 137 135 136 139 138 140 138 143 141 140 145 151 161 163 167 191 306 316 324 331 335 336 334 333